BEIDOU 10 (C10)

Last updated on Mon Feb 13 2023 00:03:21 GMT+0000 (Coordinated Universal Time)

1 37948U 11073A 23043.64182980 -.00000127 00000+0 00000+0 0 9992 2 37948 49.9007 286.4197 0085217 220.2639 322.9932 1.00279619 41163
UTC large
Height (km)
Speed (km/s)
/
Latitude / Longitude
Inclination (degrees)
Orbital Period (minutes)
Azimuth
Elevation
Range (km)
Doppler Factor

Next 0 passes for location: London (51.5072 / 0.1276)

Sorry there are no passes over London.